THY2AV LTFM-OPLA

Flight info

Callsign THY2AV
Flight time N/A
Altitude 39000
Route EKAWE UT643 LEGMU UT422 NAPIP DCT REBLO DCT MATAL T916 LEYLA N644 RODAR A909 LEMOD N644 REGET G325 HANGU L509 NONIB T400 AKBER
Aircraft A333/H-SDE3GHIJ2J3J5M1RVWXY/LB2D1

Departure

Time 2026-05-04 18:10
Airport İstanbul Airport (LTFM)

Arrival

Time N/A
Airport Allama Iqbal International Airport (OPLA)
Time Latitude Longitude Altitude Speed Heading
2026-05-04 17:26 41.26738 28.75013 317 ft 0 kts 270°
2026-05-04 17:58 41.26737 28.75031 317 ft 4 kts 273°
2026-05-04 17:58 41.26734 28.75066 316 ft 4 kts 282°
2026-05-04 17:59 41.26728 28.75099 314 ft 1 kts 292°
2026-05-04 18:02 41.26728 28.75098 317 ft 1 kts 292°
2026-05-04 18:02 41.26729 28.75095 316 ft 0 kts 290°
2026-05-04 18:02 41.26728 28.75091 317 ft 1 kts 271°
2026-05-04 18:02 41.26721 28.75085 317 ft 1 kts 222°
2026-05-04 18:03 41.26713 28.75087 317 ft 1 kts 169°
2026-05-04 18:03 41.26706 28.75100 316 ft 3 kts 131°
2026-05-04 18:03 41.26694 28.75118 317 ft 0 kts 130°
2026-05-04 18:04 41.26694 28.75119 317 ft 1 kts 130°
2026-05-04 18:05 41.26685 28.75129 317 ft 3 kts 140°
2026-05-04 18:05 41.26660 28.75154 317 ft 6 kts 146°
2026-05-04 18:05 41.26628 28.75197 315 ft 8 kts 124°
2026-05-04 18:05 41.26566 28.75259 316 ft 9 kts 164°
2026-05-04 18:06 41.26409 28.75265 317 ft 20 kts 178°
2026-05-04 18:06 41.26321 28.75290 317 ft 4 kts 119°
2026-05-04 18:06 41.26322 28.75304 317 ft 1 kts 86°
2026-05-04 18:07 41.26324 28.75318 317 ft 2 kts 83°
2026-05-04 18:07 41.26327 28.75364 317 ft 10 kts 85°
2026-05-04 18:07 41.26332 28.75498 317 ft 18 kts 90°
2026-05-04 18:07 41.26350 28.75641 317 ft 11 kts 48°
2026-05-04 18:08 41.26416 28.75666 317 ft 0 kts 359°
2026-05-04 18:09 41.26700 28.75660 313 ft 68 kts 359°
2026-05-04 18:09 41.28316 28.75623 378 ft 151 kts 357°
2026-05-04 18:10 41.29390 28.75662 788 ft 158 kts
2026-05-04 18:10 41.30503 28.75883 1312 ft 164 kts 16°
2026-05-04 18:10 41.31607 28.76209 1919 ft 168 kts
2026-05-04 18:10 41.32842 28.76400 2189 ft 189 kts 10°
2026-05-04 18:11 41.34037 28.77314 2312 ft 219 kts 48°
2026-05-04 18:11 41.34760 28.79227 2646 ft 243 kts 69°
2026-05-04 18:11 41.35125 28.81472 3304 ft 252 kts 76°
2026-05-04 18:11 41.35380 28.83793 4087 ft 255 kts 75°
2026-05-04 18:12 41.35667 28.86128 4900 ft 256 kts 72°
2026-05-04 18:12 41.36030 28.88446 5701 ft 257 kts 69°
2026-05-04 18:12 41.36470 28.90752 6504 ft 258 kts 67°
2026-05-04 18:12 41.36968 28.93054 7337 ft 258 kts 66°
2026-05-04 18:13 41.37494 28.95327 8230 ft 257 kts 65°
2026-05-04 18:13 41.37849 28.96824 8831 ft 256 kts 65°
2026-05-04 18:13 41.38939 29.01362 10392 ft 264 kts 66°
2026-05-04 18:14 41.39523 29.03771 10672 ft 284 kts 66°
2026-05-04 18:14 41.40149 29.06366 10915 ft 304 kts 66°
2026-05-04 18:14 41.40798 29.09105 11394 ft 315 kts 67°
2026-05-04 18:15 41.42116 29.14788 12620 ft 326 kts 68°
2026-05-04 18:15 41.43463 29.20637 13892 ft 335 kts 68°
2026-05-04 18:15 41.44152 29.23625 14467 ft 338 kts 68°
2026-05-04 18:16 41.44846 29.26630 15066 ft 342 kts 68°
2026-05-04 18:16 41.45550 29.29673 15641 ft 345 kts 68°
2026-05-04 18:16 41.46259 29.32740 16237 ft 347 kts 68°
2026-05-04 18:17 41.47684 29.38920 17458 ft 350 kts 68°
2026-05-04 18:17 41.48401 29.42035 18024 ft 353 kts 68°
2026-05-04 18:17 41.49848 29.48331 19044 ft 357 kts 68°
2026-05-04 18:18 41.50578 29.51514 19547 ft 359 kts 68°
2026-05-04 18:18 41.51309 29.54710 20032 ft 361 kts 68°
2026-05-04 18:18 41.52044 29.57924 20515 ft 363 kts 68°
2026-05-04 18:18 41.52782 29.61158 20988 ft 365 kts 68°
2026-05-04 18:19 41.54268 29.67680 21933 ft 369 kts 68°
2026-05-04 18:19 41.55015 29.70968 22394 ft 371 kts 68°
2026-05-04 18:19 41.55764 29.74270 22901 ft 372 kts 68°
2026-05-04 18:20 41.56513 29.77578 23377 ft 374 kts 68°
2026-05-04 18:20 41.57264 29.80901 23811 ft 374 kts 68°
2026-05-04 18:20 41.58018 29.84237 24167 ft 376 kts 68°
2026-05-04 18:20 41.58777 29.87598 24496 ft 379 kts 68°
2026-05-04 18:21 41.59539 29.90977 24839 ft 381 kts 68°
2026-05-04 18:21 41.60303 29.94377 25172 ft 383 kts 68°
2026-05-04 18:21 41.61071 29.97796 25512 ft 385 kts 68°
2026-05-04 18:21 41.61843 30.01238 25847 ft 387 kts 68°
2026-05-04 18:22 41.62615 30.04689 26179 ft 389 kts 68°
2026-05-04 18:22 41.63392 30.08164 26517 ft 391 kts 68°
2026-05-04 18:22 41.64170 30.11653 26857 ft 392 kts 68°
2026-05-04 18:22 41.64949 30.15150 27207 ft 394 kts 68°
2026-05-04 18:23 41.65722 30.18626 27501 ft 396 kts 68°
2026-05-04 18:23 41.66506 30.22161 27808 ft 398 kts 69°
2026-05-04 18:23 41.67294 30.25713 28129 ft 399 kts 69°
2026-05-04 18:23 41.68084 30.29281 28435 ft 401 kts 69°
2026-05-04 18:24 41.68876 30.32867 28802 ft 402 kts 69°
2026-05-04 18:24 41.69667 30.36459 29149 ft 403 kts 69°
2026-05-04 18:24 41.70461 30.40063 29420 ft 405 kts 69°
2026-05-04 18:24 41.71260 30.43693 29699 ft 407 kts 69°
2026-05-04 18:25 41.72060 30.47339 29998 ft 409 kts 69°
2026-05-04 18:25 41.72862 30.50997 30265 ft 410 kts 69°
2026-05-04 18:25 41.73665 30.54669 30505 ft 412 kts 69°
2026-05-04 18:25 41.74471 30.58360 30724 ft 414 kts 69°
2026-05-04 18:26 41.75274 30.62064 30970 ft 415 kts 70°
2026-05-04 18:26 41.76037 30.65806 31185 ft 418 kts 70°
2026-05-04 18:26 41.76768 30.69583 31424 ft 419 kts 71°
2026-05-04 18:26 41.77482 30.73374 31652 ft 421 kts 71°
2026-05-04 18:27 41.78194 30.77185 31874 ft 422 kts 71°
2026-05-04 18:27 41.78906 30.81001 32189 ft 422 kts 71°
2026-05-04 18:27 41.79618 30.84805 32532 ft 420 kts 71°
2026-05-04 18:27 41.80330 30.88603 32810 ft 420 kts 71°
2026-05-04 18:28 41.81043 30.92392 33144 ft 419 kts 71°
2026-05-04 18:28 41.81755 30.96176 33425 ft 418 kts 72°
2026-05-04 18:28 41.82466 30.99959 33702 ft 418 kts 72°
2026-05-04 18:28 41.83176 31.03738 33948 ft 418 kts 72°
2026-05-04 18:29 41.83887 31.07518 34138 ft 418 kts 71°
2026-05-04 18:29 41.84642 31.11292 34282 ft 420 kts 71°
2026-05-04 18:29 41.85436 31.15062 34420 ft 421 kts 70°
2026-05-04 18:29 41.86250 31.18837 34584 ft 422 kts 70°
2026-05-04 18:30 41.87891 31.26421 34884 ft 425 kts 70°
2026-05-04 18:30 41.88711 31.30240 34923 ft 426 kts 71°
2026-05-04 18:31 41.90337 31.37889 34945 ft 427 kts 71°
2026-05-04 18:31 41.91700 31.45659 34923 ft 431 kts 79°
2026-05-04 18:32 41.91621 31.53755 34914 ft 440 kts 95°
2026-05-04 18:32 41.89660 31.61609 34909 ft 452 kts 113°
2026-05-04 18:33 41.85809 31.68388 34916 ft 466 kts 132°
2026-05-04 18:33 41.81389 31.74595 34903 ft 459 kts 121°
2026-05-04 18:34 41.78419 31.81974 34908 ft 445 kts 103°
2026-05-04 18:34 41.77463 31.90016 34912 ft 433 kts 84°
2026-05-04 18:35 41.78480 31.97862 34908 ft 427 kts 71°
2026-05-04 18:35 41.79458 32.05748 34904 ft 433 kts 84°
2026-05-04 18:36 41.79486 32.13840 34916 ft 436 kts 87°
2026-05-04 18:36 41.79259 32.21960 34937 ft 436 kts 89°
2026-05-04 18:36 41.79112 32.26026 35126 ft 436 kts 89°
2026-05-04 18:37 41.78963 32.30083 35302 ft 437 kts 89°
2026-05-04 18:37 41.78816 32.34151 35447 ft 438 kts 89°
2026-05-04 18:37 41.78672 32.38232 35595 ft 439 kts 89°
2026-05-04 18:37 41.78529 32.42320 35755 ft 440 kts 89°
2026-05-04 18:38 41.78387 32.46421 35854 ft 442 kts 89°
2026-05-04 18:38 41.78244 32.50539 35977 ft 443 kts 89°
2026-05-04 18:38 41.78099 32.54674 36124 ft 444 kts 89°
2026-05-04 18:38 41.77953 32.58808 36274 ft 445 kts 90°
2026-05-04 18:39 41.77804 32.62956 36429 ft 446 kts 90°
2026-05-04 18:39 41.77655 32.67110 36566 ft 447 kts 90°
2026-05-04 18:39 41.77502 32.71269 36710 ft 448 kts 90°
2026-05-04 18:39 41.77348 32.75442 36854 ft 449 kts 90°
2026-05-04 18:40 41.77191 32.79622 36916 ft 450 kts 90°
2026-05-04 18:40 41.76872 32.88007 36920 ft 451 kts 90°
2026-05-04 18:41 41.76548 32.96401 36924 ft 451 kts 90°
2026-05-04 18:41 41.76218 33.04792 36931 ft 451 kts 90°
2026-05-04 18:42 41.75881 33.13185 36931 ft 451 kts 91°
2026-05-04 18:42 41.75538 33.21582 36940 ft 451 kts 91°
2026-05-04 18:43 41.75189 33.29985 36930 ft 453 kts 91°
2026-05-04 18:43 41.74833 33.38409 36936 ft 453 kts 91°
2026-05-04 18:44 41.74471 33.46837 36943 ft 453 kts 91°
2026-05-04 18:44 41.74102 33.55259 36938 ft 453 kts 91°
2026-05-04 18:45 41.73727 33.63689 36942 ft 454 kts 92°
2026-05-04 18:45 41.73345 33.72135 36934 ft 454 kts 92°
2026-05-04 18:46 41.72957 33.80575 36935 ft 454 kts 92°
2026-05-04 18:46 41.72566 33.88960 36938 ft 454 kts 92°
2026-05-04 18:47 41.72164 33.97451 36941 ft 454 kts 92°
2026-05-04 18:47 41.71759 34.05844 36929 ft 455 kts 92°
2026-05-04 18:48 41.71346 34.14290 36924 ft 455 kts 92°
2026-05-04 18:48 41.70926 34.22741 36923 ft 455 kts 92°
2026-05-04 18:49 41.70501 34.31185 36926 ft 455 kts 92°
2026-05-04 18:49 41.70069 34.39632 36928 ft 455 kts 93°
2026-05-04 18:50 41.69631 34.48084 36920 ft 456 kts 93°
2026-05-04 18:50 41.69186 34.56546 36920 ft 456 kts 93°
2026-05-04 18:51 41.68734 34.65007 36915 ft 456 kts 94°
2026-05-04 18:51 41.68277 34.73462 36913 ft 456 kts 94°
2026-05-04 18:52 41.67813 34.81925 36914 ft 457 kts 94°
2026-05-04 18:52 41.67342 34.90400 36916 ft 457 kts 94°
2026-05-04 18:53 41.66865 34.98883 36918 ft 457 kts 94°
2026-05-04 18:53 41.66381 35.07366 36919 ft 457 kts 94°
2026-05-04 18:54 41.65891 35.15836 36923 ft 457 kts 95°
2026-05-04 18:54 41.65395 35.24315 36918 ft 458 kts 95°
2026-05-04 18:55 41.64891 35.32812 36918 ft 458 kts 95°
2026-05-04 18:55 41.64123 35.45553 36919 ft 458 kts 95°
2026-05-04 18:56 41.63604 35.54042 36919 ft 459 kts 95°
2026-05-04 18:56 41.63077 35.62560 36923 ft 460 kts 95°
2026-05-04 18:57 41.62543 35.71087 36920 ft 461 kts 95°
2026-05-04 18:57 41.62006 35.79561 36919 ft 460 kts 95°
2026-05-04 18:58 41.61460 35.88081 36915 ft 460 kts 95°
2026-05-04 18:58 41.60907 35.96592 36921 ft 460 kts 95°
2026-05-04 18:59 41.60348 36.05108 36919 ft 460 kts 95°
2026-05-04 18:59 41.59783 36.13622 36919 ft 460 kts 96°
2026-05-04 19:00 41.59305 36.20753 36925 ft 460 kts 96°
2026-05-04 19:00 41.58728 36.29260 36922 ft 460 kts 96°
2026-05-04 19:01 41.58144 36.37783 36922 ft 461 kts 96°
2026-05-04 19:01 41.57557 36.46261 36912 ft 462 kts 96°
2026-05-04 19:02 41.56960 36.54795 36922 ft 461 kts 96°
2026-05-04 19:02 41.56356 36.63322 36922 ft 461 kts 96°
2026-05-04 19:03 41.55746 36.71857 36921 ft 463 kts 96°
2026-05-04 19:03 41.55127 36.80423 36918 ft 464 kts 97°
2026-05-04 19:04 41.54501 36.88993 36924 ft 464 kts 97°
2026-05-04 19:04 41.53868 36.97567 36920 ft 464 kts 97°
2026-05-04 19:05 41.53230 37.06134 36918 ft 464 kts 97°
2026-05-04 19:05 41.52583 37.14719 36923 ft 465 kts 97°
2026-05-04 19:06 41.51930 37.23311 36921 ft 465 kts 97°
2026-05-04 19:06 41.51270 37.31901 36923 ft 465 kts 97°
2026-05-04 19:07 41.50604 37.40485 36924 ft 465 kts 97°
2026-05-04 19:07 41.49931 37.49072 36926 ft 466 kts 97°
2026-05-04 19:08 41.49251 37.57670 36917 ft 466 kts 97°
2026-05-04 19:08 41.48565 37.66260 36923 ft 466 kts 97°
2026-05-04 19:09 41.47872 37.74857 36921 ft 466 kts 98°
2026-05-04 19:09 41.47172 37.83454 36914 ft 467 kts 98°
2026-05-04 19:10 41.46466 37.92055 36919 ft 467 kts 98°
2026-05-04 19:10 41.45752 38.00657 36914 ft 467 kts 98°
2026-05-04 19:11 41.45033 38.09256 36914 ft 467 kts 98°
2026-05-04 19:11 41.44307 38.17852 36897 ft 467 kts 98°
2026-05-04 19:12 41.43204 38.30761 36897 ft 468 kts 98°
2026-05-04 19:13 41.42459 38.39394 36897 ft 470 kts 98°
2026-05-04 19:13 41.41715 38.47925 36895 ft 471 kts 98°
2026-05-04 19:14 41.40949 38.56650 36875 ft 471 kts 99°
2026-05-04 19:14 41.40181 38.65306 36892 ft 471 kts 99°
2026-05-04 19:15 41.39412 38.73910 36892 ft 471 kts 99°
2026-05-04 19:15 41.38633 38.82559 36892 ft 471 kts 99°
2026-05-04 19:16 41.37846 38.91211 36892 ft 471 kts 99°
2026-05-04 19:16 41.37052 38.99863 36894 ft 471 kts 99°
2026-05-04 19:17 41.36250 39.08529 36895 ft 472 kts 99°
2026-05-04 19:17 41.35443 39.17185 36895 ft 472 kts 99°
2026-05-04 19:18 41.34628 39.25849 36885 ft 472 kts 99°
2026-05-04 19:18 41.33808 39.34500 36897 ft 471 kts 100°
2026-05-04 19:19 41.32981 39.43144 36892 ft 471 kts 100°
2026-05-04 19:19 41.32148 39.51791 36898 ft 471 kts 100°
2026-05-04 19:20 41.31308 39.60436 36899 ft 471 kts 100°
2026-05-04 19:20 41.30462 39.69081 36900 ft 471 kts 100°
2026-05-04 19:21 41.29609 39.77722 36901 ft 471 kts 100°
2026-05-04 19:21 41.28750 39.86358 36897 ft 471 kts 100°
2026-05-04 19:22 41.27884 39.94993 36896 ft 471 kts 100°
2026-05-04 19:22 41.27012 40.03626 36894 ft 471 kts 100°